Regional Weather Roundup
Issued by NWS

Home | Current Version | Previous Version | Text Only | Print | Product List | Glossary Off
Versions: 1 2 3 4 5 6 7 8 9 10 11 12 13 14 15 16 17 18 19 20 21 22 23 24 25 26 27 28 29 30 31 32 33 34 35 36 37 38 39 40 41 42 43 44 45 46 47 48 49 50

000
ASUS45 KTFX 021419
RWRMT
MONTANA HOURLY WEATHER ROUNDUP
NATIONAL WEATHER SERVICE GREAT FALLS MT
719 AM MST MON MAR 2 2015

NOTE: "FAIR" INDICATES FEW OR NO CLOUDS BELOW 12000 FEET WITH NO
SIGNIFICANT WEATHER AND/OR OBSTRUCTIONS TO VISIBILITY.

* THESE STATIONS ARE NOT UNDER NWS QUALITY CONTROL. THEY DO NOT
   REPORT WEATHER SUCH AS PRECIPITATION OR FOG.

MTZ001>007-043-021500-
WEST OF THE DIVIDE
CITY           SKY/WX    TMP DP  RH WIND       PRES   REMARKS
KALISPELL      CLOUDY    18  12  77 NW3       29.89S
MISSOULA       PTCLDY    18  10  71 CALM      29.91F
BUTTE          MOCLDY     7   1  76 SE6       29.82F WCI  -4
MULLAN PASS    CLOUDY    21   3  45 SW5       29.76F WCI  14
* ANACONDA     PTCLDY    12   5  73 SW7        N/A   WCI   1
* ESSEX        N/A       14   8  77 N/A        N/A
* EUREKA APT   MOCLDY    25  12  58 CALM      29.92S
* HAMILTON APT PTCLDY    19  10  68 E6        29.87F WCI  11
* LIBBY APT    MOCLDY    19  16  88 CALM      29.92S
* LINCOLN      N/A        4   0  83 N/A        N/A
* LOOKOUT PASS N/A       19   9  65 S2         N/A
* POLSON       N/A       21   9  60 N/A        N/A
* RONAN APT    PTCLDY    25  18  75 N/A        N/A
* SEELEY LAKE  N/A        3  -2  79 N/A        N/A
* THOMP F APT  MOCLDY    20  -3  36 N10        N/A   WCI   9
* YAAK HILL    N/A       23  15  71 N/A        N/A
$$

MTZ008-052>055-021500-
SOUTHWEST MONTANA
CITY           SKY/WX    TMP DP  RH WIND       PRES   REMARKS
BOZEMAN        CLEAR     12   3  67 S3        29.86F
DILLON         CLEAR     16   1  51 S10       29.83F WCI   4
* W YELLOWSTON PTCLDY   -11 -18  70 N/A        N/A
* THREE FORKS  CLEAR      7   3  83 N/A        N/A
* TWIN BRIDGES CLEAR     12   0  58 N/A        N/A
* BOULDER HILL N/A       19   1  45 S4         N/A
* MONIDA PASS  N/A        7  -5  57 SW4        N/A
* RAYNOLDS PAS N/A        5   4  96 N/A        N/A
* WHITEHALL    N/A       11   3  70 NW6        N/A   WCI   1
* WISE RIVER   N/A        3  -3  76 NW1G6      N/A
$$

MTZ009>010-012-014-046-048-049-054-021500-
EAST SLOPES AND CENTRAL MONTANA
CITY           SKY/WX    TMP DP  RH WIND       PRES   REMARKS
CUT BANK       CLOUDY    25  16  69 N20       29.83R WCI  11
GREAT FALLS    CLOUDY    27  10  49 W10       29.81R WCI  18
HELENA         MOCLDY    18  12  77 N/A       29.87S
MALMSTROM AFB  PTCLDY    28  10  47 W8        29.82R WCI  20
* CONRAD       PTCLDY    18  10  71 SE5        N/A   WCI  11
* DEARBORN     N/A       28  10  47 S6G11      N/A   WCI  21
* EAST GLACIER N/A       24   5  44 NW7        N/A   WCI  16
* MONARCH      N/A       24  -2  32 SW6        N/A   WCI  17
* PENDROY      N/A       24  12  60 N4         N/A
* ROGERS PASS  N/A       21   3  45 SW2G8      N/A
* SWEET GRASS  N/A       25  21  85 NW18G25    N/A   WCI  11
* WHITE SULPH  N/A        7  -3  63 SE2        N/A
$$

MTZ011-013-016-021-035-040-045-047-050-051-021500-
NORTH CENTRAL MONTANA
CITY           SKY/WX    TMP DP  RH WIND       PRES   REMARKS
HAVRE          PTCLDY    14  10  84 SW12      29.80S
LEWISTOWN      PTCLDY    25   9  50 W6        29.78S WCI  18
* CHINOOK      PTCLDY    10   7  88 W3        29.81S
* FORT BENTON  CLEAR     18  10  71 S3        29.84S
* CHESTER      N/A       13   8  80 NE1        N/A
* DENTON       N/A       22   8  55 SW6        N/A   WCI  14
* GEYSER       N/A       27   8  44 NW11       N/A   WCI  17
* JUDITH GAP   N/A       14   7  73 SE13G19    N/A
* LOMA         N/A       15  12  88 SW4        N/A
$$

MTZ017>020-022>027-061-062-021500-
NORTHEAST MONTANA
CITY           SKY/WX    TMP DP  RH WIND       PRES   REMARKS
GLASGOW        PTCLDY    16   9  74 SE15      29.82F WCI   1
GLENDIVE       CLEAR     12   7  80 S8        29.91F
JORDAN         CLEAR     10   7  88 CALM      29.83F
SIDNEY         PTCLDY    18   9  68 S12       29.96F WCI   5
WOLF POINT     PTCLDY    18   7  62 CALM      29.89F
* BEAVER HILL  N/A       15   7  70 SE28G33    N/A   WCI  -5
* CIRCLE       N/A       14   8  77 N/A        N/A
* LINDSAY DVD  N/A        9   5  84 SE4        N/A
* NAVAJO       N/A       11   6  80 S12        N/A   WCI  -4
* PLENTYWOOD A MOCLDY    10   7  88 SE10      29.88F WCI  -4
* POPLAR APT   PTCLDY    16   9  74 SE8       29.90F WCI   5
* SACO         N/A       12   7  80 NE8        N/A
* SCOBEY APT   MOCLDY    12   1  61 SE7        N/A   WCI   1
$$

MTZ028>042-056>058-021500-
SOUTHCENTRAL AND SOUTHEAST MONTANA
CITY           SKY/WX    TMP DP  RH WIND       PRES   REMARKS
BAKER          CLEAR     12   7  80 SE15      29.92F WCI  -4
BILLINGS       FAIR      23   9  55 W14       29.83F WCI  10
LIVINGSTON     CLEAR     21   3  45 NW16G30   29.80F WCI   7
MILES CITY     CLEAR     12   7  80 S13       29.89F WCI  -3
* BIG TIMBER A CLEAR     10   3  73 CALM      29.82F
* FORSYTH APT  CLEAR     12   7  80 CALM      29.87F
* LAUREL APT   CLEAR     21   9  60 SW8        N/A   WCI  11
* ROUNDUP APT  CLEAR     12   3  67 S15G20     N/A   WCI  -4
* ALZADA       N/A        8   4  84 E6         N/A   WCI  -2
* HYSHAM       N/A       20   5  52 W8         N/A   WCI  10
* LAME DEER    N/A       15   8  74 S6         N/A   WCI   6
* REED POINT   N/A        7   5  91 N/A        N/A
* ROSCOE HILL  N/A       22  -3  33 SE4        N/A
$$

REGIONAL REPORTS...DAKOTAS
CITY           SKY/WX    TMP DP  RH WIND       PRES   REMARKS
WILLISTON      PTCLDY    14   7  73 S8        29.97F WCI   3
DICKINSON      CLEAR     12   7  80 S17G25    29.97F WCI  -5
BEACH          CLEAR     14   9  80 S16G25    29.93F WCI  -2
CROSBY         CLEAR     10   7  88 S15       29.95F WCI  -7
TIOGA          CLEAR      9   9 100 S17       29.99F WCI  -9
WATFORD CITY   CLEAR     16   7  67 S14       29.96F WCI   2
BISMARCK       CLEAR     12   9  88 S14       30.18F WCI  -4
GRAND FORKS    PTCLDY     0  -6  75 SE7       30.30S WCI -13
FARGO          CLEAR      7   1  76 S5        30.36F WCI  -2
BUFFALO SD     PTCLDY    12   7  80 S7        29.88F WCI   1
RAPID CITY     PTCLDY    18   9  68 S12       29.97F WCI   5
$$

REGIONAL REPORTS...WYOMING/IDAHO/WASHINGTON
CITY           SKY/WX    TMP DP  RH WIND       PRES   REMARKS
GILLETTE       PTCLDY    18  10  71 S7        29.87F WCI   9
SHERIDAN       PTCLDY     7   0  73 N5        29.85F WCI  -2
CODY           PTCLDY    12   5  73 S5        29.83F WCI   4
YELLOWSTONE LA MOCLDY   -11 -17  74 CALM      29.84F
SALMON         CLEAR     12  10  92 CALM      29.89F
MULLAN PASS    CLOUDY    21   3  45 SW5       29.76S WCI  14
SAND POINT     MOCLDY    23  19  85 CALM      29.91F
SPOKANE        CLOUDY    28  16  61 CALM      29.88S
$$

REGIONAL REPORTS...ALBERTA
CITY           SKY/WX    TMP DP  RH WIND       PRES   REMARKS
CALGARY        LGT SNOW  23  19  85 N35G41    29.89R VSB M1/4 WCI   4
LETHBRIDGE     LGT SNOW  28  27  96 NW13      29.87R VSB 2 1/2 WCI  17
MEDICINE HAT   CLOUDY    23  18  81 W8        29.82R WCI  14
EDMONTON       LGT SNOW  19  16  88 N18G28    30.01R WCI   4
WATERTON GATE  N/A       25  19  78 NE14G20    N/A   WCI  13
CARDSTON       N/A       25  25 100 N10        N/A   WCI  15
MILK RIVER     N/A       27  25  92 NW20G25    N/A   WCI  13
$$

REGIONAL REPORTS...SASKATCHEWAN
CITY           SKY/WX    TMP DP  RH WIND       PRES   REMARKS
SWIFT CURRENT  CLEAR     14   9  80 SW18      29.69S WCI  -3
MOOSE JAW      MOCLDY    16  10  77 S18G24    29.77F
REGINA         SNOW       1  -2  87 SE15      29.82F WCI -18
VAL MARIE      N/A        9   7  91 SW1        N/A
ASSINIBOIA     N/A       14   7  73 S12        N/A
CORONACH       N/A       12   9  88 SE15G21    N/A   WCI  -4

$$




USA.gov is the U.S. government's official web portal to all federal, state and local government web resources and services.